| time (UTC) | temp C | wind direction | speed KPH | gust KPH | rain 1hr cm | rain 24hr cm | rain mn cm | humidity % | barometer mb |
| 20260502195530 | -17 | 0 | 3.2 | 4.8 | 0.00 | 0.00 | 0.00 | 1017.5 | |
| 20260502194346 | -17 | 135 | 1.6 | 3.2 | 0.00 | 0.00 | 0.00 | 1017.3 | |
| 20260502193204 | -17 | 45 | 0.0 | 1.6 | 0.00 | 0.00 | 0.00 | 1017.1 | |
| 20260502192021 | -17 | 45 | 1.6 | 4.8 | 0.00 | 0.00 | 0.00 | 1016.9 | |
| 20260502190839 | -17 | 90 | 0.0 | 3.2 | 0.00 | 0.00 | 0.00 | 1016.8 | |
| 20260502185656 | -17 | 158 | 3.2 | 4.8 | 0.00 | 0.00 | 0.00 | 1016.5 | |
| 20260502184515 | -17 | 90 | 3.2 | 3.2 | 0.00 | 0.00 | 0.00 | 1016.3 | |
| 20260502183337 | -17 | 158 | 0.0 | 0.0 | 0.00 | 0.00 | 0.00 | 1016.1 | |
| 20260502182158 | -17 | 158 | 0.0 | 1.6 | 0.00 | 0.00 | 0.00 | 1015.8 | |
| 20260502181020 | -17 | 180 | 0.0 | 3.2 | 0.00 | 0.00 | 0.00 | 1015.3 | |
| 20260502163715 | -17 | 338 | 3.2 | 11.3 | 0.00 | 0.00 | 0.00 | 1014.5 | |
| 20260502162538 | -17 | 135 | 3.2 | 9.7 | 0.00 | 0.00 | 0.00 | 1014.7 | |
| 20260502161358 | -17 | 90 | 3.2 | 9.7 | 0.00 | 0.00 | 0.00 | 1015.0 | |
| 20260502160220 | -17 | 225 | 6.4 | 9.7 | 0.00 | 0.00 | 0.00 | 1015.2 | |
| 20260502151523 | -17 | 225 | 3.2 | 14.5 | 0.00 | 0.00 | 0.00 | 1015.7 | |
| 20260502150345 | -17 | 293 | 6.4 | 9.7 | 0.00 | 0.00 | 0.00 | 1015.9 | |
| 20260502130721 | -17 | 0 | 1.6 | 12.9 | 0.00 | 0.00 | 0.00 | 1017.1 | |
| 20260502123227 | -17 | 270 | 4.8 | 11.3 | 0.00 | 0.00 | 0.00 | 1017.7 | |
| 20260502122049 | -17 | 135 | 4.8 | 11.3 | 0.00 | 0.00 | 0.00 | 1017.8 | |
| 20260502120911 | -17 | 158 | 4.8 | 12.9 | 0.00 | 0.00 | 0.00 | 1018.0 | |
| 20260502115733 | -17 | 158 | 1.6 | 9.7 | 0.00 | 0.00 | 0.00 | 1018.1 | |
| 20260502114555 | -17 | 225 | 1.6 | 16.1 | 0.00 | 0.00 | 0.00 | 1018.3 | |
| 20260502113416 | -17 | 338 | 4.8 | 11.3 | 0.00 | 0.00 | 0.00 | 1018.6 | |
| 20260502112237 | -17 | 338 | 8.0 | 12.9 | 0.00 | 0.00 | 0.00 | 1018.6 | |
| 20260502111100 | -17 | 225 | 4.8 | 22.5 | 0.00 | 0.00 | 0.00 | 1018.7 | |
| 20260502105921 | -17 | 248 | 1.6 | 14.5 | 0.00 | 0.00 | 0.00 | 1019.0 | |
| 20260502104743 | -17 | 270 | 4.8 | 8.0 | 0.00 | 0.00 | 0.00 | 1019.2 | |
| 20260502103606 | -17 | 158 | 1.6 | 14.5 | 0.00 | 0.00 | 0.00 | 1019.4 | |
| 20260502102424 | -17 | 158 | 9.7 | 14.5 | 0.00 | 0.00 | 0.00 | 1019.5 | |
| 20260502101247 | -17 | 315 | 3.2 | 16.1 | 0.00 | 0.00 | 0.00 | 1019.6 | |
| 20260502100109 | -17 | 270 | 6.4 | 11.3 | 0.00 | 0.00 | 0.00 | 1019.7 | |
| 20260502091435 | -17 | 270 | 1.6 | 11.3 | 0.00 | 0.00 | 0.00 | 1020.7 | |
| 20260502090257 | -17 | 315 | 6.4 | 12.9 | 0.00 | 0.00 | 0.00 | 1020.8 | |
| 20260502070630 | -17 | 315 | 1.6 | 8.0 | 0.00 | 0.00 | 0.00 | 1021.6 | |
| 20260502065451 | -17 | 315 | 1.6 | 4.8 | 0.00 | 0.00 | 0.00 | 1021.8 | |
| 20260502064313 | -17 | 135 | 0.0 | 3.2 | 0.00 | 0.00 | 0.00 | 1022.0 | |
| 20260502063135 | -17 | 293 | 1.6 | 1.6 | 0.00 | 0.00 | 0.00 | 1022.3 | |
| 20260502061953 | -17 | 270 | 0.0 | 1.6 | 0.00 | 0.00 | 0.00 | 1022.7 | |
| 20260502060811 | -17 | 270 | 1.6 | 3.2 | 0.00 | 0.00 | 0.00 | 1023.0 | |
| 20260502055627 | -17 | 270 | 3.2 | 4.8 | 0.00 | 0.00 | 0.00 | 1023.3 | |
| 20260502054445 | -17 | 293 | 3.2 | 6.4 | 0.00 | 0.00 | 0.00 | 1023.5 | |
| 20260502053303 | -17 | 270 | 0.0 | 6.4 | 0.00 | 0.00 | 0.00 | 1023.7 | |
| 20260502052123 | -17 | 315 | 1.6 | 4.8 | 0.00 | 0.00 | 0.00 | 1024.0 | |
| 20260502050936 | -17 | 270 | 1.6 | 3.2 | 0.00 | 0.00 | 0.00 | 1024.1 | |
| 20260502045752 | -17 | 270 | 1.6 | 3.2 | 0.00 | 0.00 | 0.00 | 1024.2 | |
| 20260502044611 | -17 | 270 | 1.6 | 6.4 | 0.00 | 0.00 | 0.00 | 1024.5 | |
| 20260502043431 | -17 | 0 | 4.8 | 6.4 | 0.00 | 0.00 | 0.00 | 1024.5 | |
| 20260502042250 | -17 | 270 | 3.2 | 4.8 | 0.00 | 0.00 | 0.00 | 1024.7 | |
| 20260502041109 | -17 | 270 | 4.8 | 6.4 | 0.00 | 0.00 | 0.00 | 1024.7 | |
| 20260502035926 | -17 | 90 | 3.2 | 4.8 | 0.00 | 0.00 | 0.00 | 1024.5 | |
| 20260502034745 | -17 | 293 | 3.2 | 3.2 | 0.00 | 0.00 | 0.00 | 1024.6 | |
| 20260502033603 | -17 | 270 | 3.2 | 3.2 | 0.00 | 0.00 | 0.00 | 1024.5 | |
| 20260502032419 | -17 | 293 | 0.0 | 3.2 | 0.00 | 0.00 | 0.00 | 1024.5 | |
| 20260502031239 | -17 | 270 | 0.0 | 3.2 | 0.00 | 0.00 | 0.00 | 1024.5 | |
| 20260502030058 | -17 | 270 | 1.6 | 4.8 | 0.00 | 0.00 | 0.00 | 1024.6 | |
| 20260502024916 | -17 | 270 | 3.2 | 6.4 | 0.00 | 0.00 | 0.00 | 1024.7 | |
| 20260502023736 | -17 | 293 | 3.2 | 6.4 | 0.00 | 0.00 | 0.00 | 1024.7 | |
| 20260502022556 | -17 | 293 | 3.2 | 3.2 | 0.00 | 0.00 | 0.00 | 1024.6 | |
| 20260502021414 | -17 | 293 | 1.6 | 3.2 | 0.00 | 0.00 | 0.00 | 1024.6 | |
| 20260502020234 | -17 | 270 | 1.6 | 6.4 | 0.00 | 0.00 | 0.00 | 1024.5 | |
| 20260502015053 | -17 | 90 | 3.2 | 3.2 | 0.00 | 0.00 | 0.00 | 1024.6 | |
| 20260502013913 | -17 | 270 | 0.0 | 3.2 | 0.00 | 0.00 | 0.00 | 1024.7 | |
| 20260502012732 | -17 | 270 | 0.0 | 3.2 | 0.00 | 0.00 | 0.00 | 1024.7 | |
| 20260502011550 | -17 | 270 | 1.6 | 3.2 | 0.00 | 0.00 | 0.00 | 1024.8 | |
| 20260502010409 | -17 | 270 | 0.0 | 3.2 | 0.00 | 0.00 | 0.00 | 1024.7 | |
| 20260502005230 | -17 | 293 | 0.0 | 3.2 | 0.00 | 0.00 | 0.00 | 1024.7 | |
| 20260502004048 | -17 | 315 | 1.6 | 3.2 | 0.00 | 0.00 | 0.00 | 1024.7 | |
| 20260502002906 | -17 | 315 | 1.6 | 4.8 | 0.00 | 0.00 | 0.00 | 1024.7 | |
| 20260502001725 | -17 | 90 | 3.2 | 4.8 | 0.00 | 0.00 | 0.00 | 1024.7 | |
| 20260502000544 | -17 | 158 | 4.8 | 8.0 | 0.00 | 0.00 | 0.00 | 1024.7 | |
| 20260501235404 | -17 | 45 | 1.6 | 4.8 | 0.00 | 0.00 | 0.00 | 1024.7 | |
| 20260501234223 | -17 | 293 | 4.8 | 4.8 | 0.00 | 0.00 | 0.00 | 1024.7 | |
| 20260501233043 | -17 | 293 | 3.2 | 3.2 | 0.00 | 0.00 | 0.00 | 1024.6 | |
| 20260501231903 | -17 | 293 | 1.6 | 3.2 | 0.00 | 0.00 | 0.00 | 1024.7 | |
| 20260501230723 | -17 | 45 | 1.6 | 4.8 | 0.00 | 0.00 | 0.00 | 1024.8 | |
| 20260501225543 | -17 | 90 | 3.2 | 4.8 | 0.00 | 0.00 | 0.00 | 1024.8 | |
| 20260501224404 | -17 | 90 | 1.6 | 4.8 | 0.00 | 0.00 | 0.00 | 1024.8 | |
| 20260501223220 | -17 | 45 | 4.8 | 4.8 | 0.00 | 0.00 | 0.00 | 1024.8 | |
| 20260501220854 | -17 | 158 | 1.6 | 4.8 | 0.00 | 0.00 | 0.00 | 1024.7 | |
| 20260501215712 | -17 | 90 | 3.2 | 4.8 | 0.00 | 0.00 | 0.00 | 1024.7 | |
| 20260501214530 | -17 | 45 | 1.6 | 4.8 | 0.00 | 0.00 | 0.00 | 1024.6 | |
| 20260501213348 | -17 | 293 | 1.6 | 3.2 | 0.00 | 0.00 | 0.00 | 1024.6 | |
| 20260501212206 | -17 | 293 | 0.0 | 0.0 | 0.00 | 0.00 | 0.00 | 1024.6 | |
| 20260501211024 | -17 | 293 | 0.0 | 3.2 | 0.00 | 0.00 | 0.00 | 1024.3 | |
| 20260501205842 | -17 | 293 | 1.6 | 4.8 | 0.00 | 0.00 | 0.00 | 1024.2 | |
| 20260501204700 | -17 | 293 | 3.2 | 3.2 | 0.00 | 0.00 | 0.00 | 1024.3 | |
| 20260501203518 | -17 | 293 | 0.0 | 1.6 | 0.00 | 0.00 | 0.00 | 1024.2 | |
| 20260501202335 | -17 | 293 | 0.0 | 3.2 | 0.00 | 0.00 | 0.00 | 1024.0 | |
| 20260501201150 | -17 | 315 | 1.6 | 3.2 | 0.00 | 0.00 | 0.00 | 1023.9 |